APRIZESAT 6

Last updated on Sun Jun 21 2026 00:03:42 GMT+0000 (Coordinated Universal Time)

1 37793U 11044F 26171.34143514 .00000569 00000+0 87454-4 0 9992 2 37793 98.2361 81.9054 0044455 76.2520 40.3130 14.76919894797610
UTC large
Height (km)
Speed (km/s)
/
Latitude / Longitude
Inclination (degrees)
Orbital Period (minutes)
Azimuth
Elevation
Range (km)
Doppler Factor

Next 0 passes for location: London (51.5072 / 0.1276)

No passes found over London.
APRIZESAT 6